Weather History for Cheraw, SC

Change the Weather History Date:

Wednesday, January 29, 2014

  Actual Average (KFLO) Record (KFLO)
Temperature  
Mean Temperature 22 °F 46 °F  
Max Temperature 28 °F 56 °F 80 °F (2002)
Min Temperature 15 °F 35 °F 18 °F (1963)
Degree Days  
Heating Degree Days 42 19  
Month to date heating degree days 584  
Since 1 July heating degree days 1563  
Cooling Degree Days 0 0  
Month to date cooling degree days 0  
Year to date cooling degree days 0  
Moisture  
Dew Point 10 °F    
Average Humidity 61    
Maximum Humidity 93    
Minimum Humidity 29    
Precipitation  
Precipitation 0.00 in 0.11 in 1.30 in (1974)
Month to date precipitation 3.03  
Year to date precipitation 3.03  
Sea Level Pressure  
Sea Level Pressure 30.29 in    
Wind  
Wind Speed - (North)    
Max Wind Speed -    
Max Gust Speed -    
Visibility 9 miles    
Events Rain , Snow    
T = Trace of Precipitation, MM = Missing Value Source: NWS Daily Summary

Daily Weather History Graph

Daily Weather History Graph

Search for Another Location

Airport:

Trip Planner

Search our weather history database for the weather conditions in past years. The results will help you decide how hot, cold, wet, or windy it might be!

Date:

Astronomy

Jan. 29, 2014 Rise Set
Actual Time 7:20 AM EST 5:46 PM EST
Civil Twilight 6:53 AM EST 6:12 PM EST
Nautical Twilight 6:23 AM EST 6:43 PM EST
Astronomical Twilight 5:53 AM EST 7:12 PM EST
Moon 5:55 AM EST 4:43 PM EST
Length of Visible Light 11h 19m
Length of Day
10h 25m
Waning Crescent, 2% of the Moon is Illuminated
Jan 29
Waning Crescent
Jan 30
New
Feb 6
First Quarter
Feb 14
Full
Feb 22
Last Quarter

Hourly Weather History & Observations

Time (EST) Temp. Dew Point Humidity Pressure Visibility Wind Dir Wind Speed Gust Speed Precip Events Conditions
12:15 AM 21.2 °F 19.4 °F 93% 30.18 in 1.8 mi North - - N/A Snow Light Snow
12:35 AM 23.0 °F 21.2 °F 93% 30.20 in 1.5 mi North - - N/A Snow Light Snow
12:55 AM 21.2 °F 19.4 °F 93% 30.19 in 1.0 mi North - - N/A Snow Light Snow
1:15 AM 21.2 °F 19.4 °F 93% 30.17 in 1.2 mi North - - N/A Snow Light Snow
1:35 AM 21.2 °F 19.4 °F 93% 30.16 in 0.8 mi North - - N/A Snow Light Snow
1:55 AM 21.2 °F 19.4 °F 93% 30.16 in 0.8 mi North - - N/A Snow Light Snow
2:15 AM 21.2 °F 19.4 °F 93% 30.18 in 5.0 mi North - - N/A Snow Light Snow
2:35 AM 21.2 °F 19.4 °F 93% 30.16 in 8.0 mi North - - N/A Snow Light Snow
2:55 AM 21.2 °F 17.6 °F 86% 30.16 in 10.0 mi North - - N/A Snow Light Snow
3:15 AM 21.2 °F 17.6 °F 86% 30.19 in 7.0 mi North - - N/A Snow Light Snow
3:35 AM 21.2 °F 19.4 °F 93% 30.19 in 3.0 mi North - - N/A Snow Light Snow
3:55 AM 21.2 °F 17.6 °F 86% 30.19 in 10.0 mi North - - N/A Snow Light Snow
4:15 AM 21.2 °F 17.6 °F 86% 30.19 in 10.0 mi North - - N/A   Overcast
4:35 AM 21.2 °F 17.6 °F 86% 30.19 in 10.0 mi North - - N/A   Overcast
4:55 AM 21.2 °F 17.6 °F 86% 30.21 in 10.0 mi North - - N/A   Overcast
5:15 AM 21.2 °F 17.6 °F 86% 30.22 in 10.0 mi North - - N/A   Overcast
5:35 AM 21.2 °F 17.6 °F 86% 30.21 in 10.0 mi North - - N/A Snow Light Snow
5:55 AM 21.2 °F 17.6 °F 86% 30.21 in 10.0 mi North - - N/A Rain Light Freezing Rain
6:15 AM 21.2 °F 17.6 °F 86% 30.22 in 10.0 mi North - - N/A Rain Light Freezing Rain
6:35 AM 21.2 °F 17.6 °F 86% 30.23 in 10.0 mi North - - N/A Rain Light Freezing Rain
6:55 AM 21.2 °F 17.6 °F 86% 30.23 in 10.0 mi North - - N/A Rain Light Freezing Rain
7:15 AM 19.4 °F 15.8 °F 86% 30.25 in 10.0 mi North - - N/A   Clear
7:35 AM 19.4 °F 15.8 °F 86% 30.25 in 10.0 mi North - - N/A Rain Light Freezing Rain
7:55 AM 19.4 °F 15.8 °F 86% 30.26 in 10.0 mi North - - N/A   Clear
8:15 AM 19.4 °F 15.8 °F 86% 30.27 in 10.0 mi North - - N/A Rain Light Freezing Rain
8:55 AM 19.4 °F 14.0 °F 80% 30.30 in 10.0 mi North - - N/A Rain Light Freezing Rain
9:15 AM 21.2 °F 14.0 °F 74% 30.31 in 10.0 mi North - - N/A Rain Light Freezing Rain
9:35 AM 23.0 °F 14.0 °F 68% 30.30 in 10.0 mi North - - N/A Rain Light Freezing Rain
9:55 AM 23.0 °F 14.0 °F 68% 30.32 in 10.0 mi North - - N/A Rain Light Freezing Rain
10:15 AM 23.0 °F 12.2 °F 63% 30.33 in 10.0 mi North - - N/A Rain Light Freezing Rain
10:35 AM 23.0 °F 8.6 °F 54% 30.35 in 10.0 mi North - - N/A Rain Light Freezing Rain
10:55 AM 24.8 °F 8.6 °F 50% 30.34 in 10.0 mi North - - N/A Rain Light Freezing Rain
11:15 AM 24.8 °F 8.6 °F 50% 30.33 in 10.0 mi North - - N/A   Clear
11:35 AM 24.8 °F 8.6 °F 50% 30.34 in 10.0 mi North - - N/A   Clear
11:55 AM 24.8 °F 8.6 °F 50% 30.34 in 10.0 mi North - - N/A   Clear
12:15 PM 24.8 °F 8.6 °F 50% 30.33 in 10.0 mi North - - N/A   Clear
12:35 PM 26.6 °F 8.6 °F 47% 30.32 in 10.0 mi North - - N/A   Clear
12:55 PM 26.6 °F 5.0 °F 40% 30.32 in 10.0 mi North - - N/A   Clear
1:15 PM 26.6 °F 1.4 °F 34% 30.32 in 10.0 mi North - - N/A   Clear
1:35 PM 26.6 °F 1.4 °F 34% 30.31 in 10.0 mi North - - N/A   Clear
1:55 PM 26.6 °F -0.4 °F 31% 30.31 in 10.0 mi North - - N/A   Clear
2:15 PM 26.6 °F 1.4 °F 34% 30.30 in 10.0 mi North - - N/A   Clear
2:35 PM 26.6 °F -0.4 °F 31% 30.29 in 10.0 mi North - - N/A   Clear
2:55 PM 26.6 °F -0.4 °F 31% 30.31 in 10.0 mi North - - N/A   Clear
3:15 PM 28.4 °F 1.4 °F 31% 30.31 in 10.0 mi North - - N/A   Clear
3:35 PM 28.4 °F 3.2 °F 34% 30.31 in 10.0 mi North - - N/A   Clear
3:55 PM 28.4 °F 1.4 °F 31% 30.31 in 10.0 mi North - - N/A   Clear
4:15 PM 28.4 °F 1.4 °F 31% 30.31 in 10.0 mi North - - N/A   Clear
4:35 PM 26.6 °F 3.2 °F 37% 30.32 in 10.0 mi North - - N/A   Clear
4:55 PM 28.4 °F -0.4 °F 29% 30.32 in 10.0 mi North - - N/A   Clear
5:15 PM 26.6 °F -0.4 °F 31% 30.32 in 10.0 mi North - - N/A   Clear
5:35 PM 26.6 °F 3.2 °F 37% 30.32 in 10.0 mi North - - N/A   Clear
5:55 PM 26.6 °F 1.4 °F 34% 30.33 in 10.0 mi North - - N/A   Clear
6:15 PM 26.6 °F 3.2 °F 37% 30.33 in 10.0 mi North - - N/A   Clear
6:35 PM 26.6 °F 1.4 °F 34% 30.34 in 10.0 mi North - - N/A   Clear
6:55 PM 24.8 °F 10.4 °F 54% 30.34 in 10.0 mi North - - N/A   Clear
7:15 PM 26.6 °F 5.0 °F 40% 30.35 in 10.0 mi North - - N/A   Clear
7:35 PM 24.8 °F 5.0 °F 43% 30.35 in 10.0 mi North - - N/A   Clear
7:55 PM 24.8 °F 5.0 °F 43% 30.34 in 10.0 mi North - - N/A   Clear
8:15 PM 24.8 °F 6.8 °F 46% 30.34 in 10.0 mi North - - N/A   Clear
8:35 PM 24.8 °F 3.2 °F 40% 30.34 in 10.0 mi North - - N/A   Clear
8:55 PM 24.8 °F 3.2 °F 40% 30.34 in 10.0 mi North - - N/A   Clear
9:15 PM 24.8 °F 5.0 °F 43% 30.34 in 10.0 mi North - - N/A   Clear
9:35 PM 23.0 °F 6.8 °F 50% 30.36 in 10.0 mi North - - N/A   Clear
9:55 PM 23.0 °F 8.6 °F 54% 30.36 in 10.0 mi North - - N/A   Clear
10:15 PM 21.2 °F 6.8 °F 54% 30.37 in 10.0 mi North - - N/A   Clear
10:35 PM 19.4 °F 6.8 °F 58% 30.36 in 10.0 mi North - - N/A   Clear
10:55 PM 17.6 °F 8.6 °F 68% 30.37 in 10.0 mi North - - N/A   Clear
11:15 PM 17.6 °F 8.6 °F 68% 30.37 in 10.0 mi North - - N/A   Clear
11:35 PM 17.6 °F 8.6 °F 68% 30.37 in 10.0 mi North - - N/A   Clear
11:55 PM 15.8 °F 8.6 °F 73% 30.37 in 10.0 mi North - - N/A   Clear